Regional Weather Roundup
Issued by NWS Charleston, WV

Home | Current Version | Previous Version | Text Only | Print | Product List | Glossary Off
Versions: 1 2 3 4 5 6 7 8 9 10 11 12 13 14 15 16 17 18 19 20 21 22 23 24 25 26 27 28 29 30 31 32 33 34 35 36 37 38 39 40 41 42 43 44 45 46 47 48

000
ASUS41 KRLX 030110
RWRRLX
West Virginia Regional Weather Roundup
National Weather Service Charleston WV
900 PM EDT SAT MAY 02 2015

Note: "fair" indicates few or no clouds below 12,000 feet with no
significant weather and/or obstructions to visibility.

WVZ003-030200-
Northern Panhandle of West Virginia

CITY           SKY/WX    TMP DP  RH WIND       PRES   REMARKS
WHEELING       MOCLDY    66  38  35 SW3       30.04R
$$

WVZ009-030200-
Northwest West Virginia

CITY           SKY/WX    TMP DP  RH WIND       PRES   REMARKS
PARKERSBURG    CLEAR     64  38  38 CALM      30.07R
$$

WVZ006-030200-
Western West Virginia

CITY           SKY/WX    TMP DP  RH WIND       PRES   REMARKS
HUNTINGTON     CLEAR     63  41  44 SE3       30.06R
$$

WVZ015-030200-
West Central West Virginia

CITY           SKY/WX    TMP DP  RH WIND       PRES   REMARKS
CHARLESTON     PTCLDY    64  38  38 CALM      30.07R
$$

WVZ022-031-030200-
North Central West Virginia

CITY           SKY/WX    TMP DP  RH WIND       PRES   REMARKS
CLARKSBURG     PTCLDY    62  39  42 CALM      30.05R
MORGANTOWN     CLEAR     67  34  29 CALM      30.05R
$$

WVZ025-035-042-045-030200-
Southern West Virginia

CITY           SKY/WX    TMP DP  RH WIND       PRES   REMARKS
BECKLEY        CLEAR     56  35  45 CALM      30.12R
LOGAN            N/A     64  34  32 CALM      30.06R
BLUEFIELD      CLEAR     61  31  32 CALM      30.13R
LEWISBURG      PTCLDY    61  32  33 CALM      30.11R
$$

WVZ047-030200-
Northern Mountains of West Virginia

CITY           SKY/WX    TMP DP  RH WIND       PRES   REMARKS
ELKINS         CLEAR     50  41  71 CALM      30.09R
$$

WVZ052-030200-
Eastern Panhandle of West Virginia

CITY           SKY/WX    TMP DP  RH WIND       PRES   REMARKS
MARTINSBURG    CLEAR     59  44  57 CALM      30.00R
PETERSBURG     PTCLDY    59  39  46 NW3       30.05R
$$


USA.gov is the U.S. government's official web portal to all federal, state and local government web resources and services.